Wetterdaten: Donnerstag, 06.05.2010
Datum Zeit Temp. A. Feuchte A. Luftdruck Regen Wind Richtung Richtung Sonnenschein UV Solar Windben
06.05.2010 00:00 7,1 C 67 % 1010,9 hPa 0,0 mm 1,6 km/h (1 Bft) N-NO 22 0 min 0 UV-I 0 W/m 6,4 km/h (2 Bft)
06.05.2010 00:10 6,9 C 67 % 1010,8 hPa 0,0 mm 1,6 km/h (1 Bft) N-NO 22 0 min 0 UV-I 0 W/m 4,8 km/h (1 Bft)
06.05.2010 00:20 6,9 C 67 % 1010,8 hPa 0,0 mm 1,6 km/h (1 Bft) N-NO 22 0 min 0 UV-I 0 W/m 6,4 km/h (2 Bft)
06.05.2010 00:30 6,9 C 67 % 1010,7 hPa 0,0 mm 1,6 km/h (1 Bft) N-NO 22 0 min 0 UV-I 0 W/m 11,3 km/h (2 Bft)
06.05.2010 00:40 6,9 C 66 % 1010,6 hPa 0,0 mm 3,2 km/h (1 Bft) N-NO 22 0 min 0 UV-I 0 W/m 9,7 km/h (2 Bft)
06.05.2010 00:50 6,9 C 67 % 1010,5 hPa 0,0 mm 1,6 km/h (1 Bft) NO 45 0 min 0 UV-I 0 W/m 8,0 km/h (2 Bft)
06.05.2010 01:00 6,9 C 67 % 1010,4 hPa 0,0 mm 3,2 km/h (1 Bft) NO 45 0 min 0 UV-I 0 W/m 9,7 km/h (2 Bft)
06.05.2010 01:10 7,0 C 67 % 1010,1 hPa 0,0 mm 1,6 km/h (1 Bft) N-NO 22 0 min 0 UV-I 0 W/m 11,3 km/h (2 Bft)
06.05.2010 01:20 7,0 C 68 % 1009,9 hPa 0,0 mm 1,6 km/h (1 Bft) O-NO 67 0 min 0 UV-I 0 W/m 11,3 km/h (2 Bft)
06.05.2010 01:30 7,0 C 69 % 1009,7 hPa 0,0 mm 1,6 km/h (1 Bft) N 360 0 min 0 UV-I 0 W/m 8,0 km/h (2 Bft)
06.05.2010 01:40 6,9 C 69 % 1009,7 hPa 0,0 mm 3,2 km/h (1 Bft) NO 45 0 min 0 UV-I 0 W/m 14,5 km/h (3 Bft)
06.05.2010 01:50 6,9 C 70 % 1009,6 hPa 0,0 mm 1,6 km/h (1 Bft) NO 45 0 min 0 UV-I 0 W/m 8,0 km/h (2 Bft)
06.05.2010 02:00 6,8 C 70 % 1009,5 hPa 0,0 mm 1,6 km/h (1 Bft) N-NO 22 0 min 0 UV-I 0 W/m 6,4 km/h (2 Bft)
06.05.2010 02:10 6,8 C 71 % 1009,4 hPa 0,0 mm 1,6 km/h (1 Bft) N 360 0 min 0 UV-I 0 W/m 6,4 km/h (2 Bft)
06.05.2010 02:20 6,8 C 71 % 1009,1 hPa 0,0 mm 3,2 km/h (1 Bft) N-NO 22 0 min 0 UV-I 0 W/m 11,3 km/h (2 Bft)
06.05.2010 02:30 6,9 C 71 % 1009,0 hPa 0,0 mm 4,8 km/h (1 Bft) NO 45 0 min 0 UV-I 0 W/m 14,5 km/h (3 Bft)
06.05.2010 02:40 6,9 C 71 % 1008,9 hPa 0,0 mm 1,6 km/h (1 Bft) NO 45 0 min 0 UV-I 0 W/m 9,7 km/h (2 Bft)
06.05.2010 02:50 6,9 C 72 % 1008,9 hPa 0,0 mm 3,2 km/h (1 Bft) NO 45 0 min 0 UV-I 0 W/m 8,0 km/h (2 Bft)
06.05.2010 03:00 6,8 C 72 % 1008,8 hPa 0,0 mm 3,2 km/h (1 Bft) O-NO 67 0 min 0 UV-I 0 W/m 8,0 km/h (2 Bft)
06.05.2010 03:10 6,8 C 72 % 1008,6 hPa 0,0 mm 1,6 km/h (1 Bft) N-NO 22 0 min 0 UV-I 0 W/m 9,7 km/h (2 Bft)
06.05.2010 03:20 6,8 C 72 % 1008,4 hPa 0,0 mm 3,2 km/h (1 Bft) N 360 0 min 0 UV-I 0 W/m 19,3 km/h (3 Bft)
06.05.2010 03:30 6,7 C 73 % 1008,3 hPa 0,0 mm 3,2 km/h (1 Bft) N-NO 22 0 min 0 UV-I 0 W/m 8,0 km/h (2 Bft)
06.05.2010 03:40 6,6 C 73 % 1008,2 hPa 0,0 mm 3,2 km/h (1 Bft) NO 45 0 min 0 UV-I 0 W/m 11,3 km/h (2 Bft)
06.05.2010 03:50 6,6 C 73 % 1008,1 hPa 0,0 mm 3,2 km/h (1 Bft) NO 45 0 min 0 UV-I 0 W/m 9,7 km/h (2 Bft)
06.05.2010 04:00 6,6 C 73 % 1008,0 hPa 0,0 mm 1,6 km/h (1 Bft) N-NO 22 0 min 0 UV-I 0 W/m 9,7 km/h (2 Bft)
06.05.2010 04:10 6,7 C 73 % 1007,9 hPa 0,0 mm 3,2 km/h (1 Bft) O-NO 67 0 min 0 UV-I 0 W/m 17,7 km/h (3 Bft)
06.05.2010 04:20 6,8 C 72 % 1007,8 hPa 0,0 mm 3,2 km/h (1 Bft) NO 45 0 min 0 UV-I 0 W/m 14,5 km/h (3 Bft)
06.05.2010 04:30 6,9 C 73 % 1007,6 hPa 0,0 mm 3,2 km/h (1 Bft) N-NO 22 0 min 0 UV-I 0 W/m 11,3 km/h (2 Bft)
06.05.2010 04:40 6,9 C 73 % 1007,5 hPa 0,0 mm 3,2 km/h (1 Bft) N-NO 22 0 min 0 UV-I 0 W/m 9,7 km/h (2 Bft)
06.05.2010 04:50 6,9 C 73 % 1007,3 hPa 0,0 mm 3,2 km/h (1 Bft) O-NO 67 0 min 0 UV-I 0 W/m 11,3 km/h (2 Bft)
06.05.2010 05:00 6,9 C 73 % 1007,1 hPa 0,0 mm 3,2 km/h (1 Bft) O-NO 67 0 min 0 UV-I 0 W/m 12,9 km/h (3 Bft)
06.05.2010 05:10 6,9 C 73 % 1007,1 hPa 0,0 mm 3,2 km/h (1 Bft) NO 45 0 min 0 UV-I 0 W/m 11,3 km/h (2 Bft)
06.05.2010 05:20 6,9 C 73 % 1006,9 hPa 0,0 mm 1,6 km/h (1 Bft) N-NO 22 0 min 0 UV-I 0 W/m 8,0 km/h (2 Bft)
06.05.2010 05:30 6,9 C 73 % 1006,8 hPa 0,0 mm 3,2 km/h (1 Bft) O-NO 67 0 min 0 UV-I 0 W/m 12,9 km/h (3 Bft)
06.05.2010 05:40 6,9 C 73 % 1006,8 hPa 0,0 mm 3,2 km/h (1 Bft) O-NO 67 0 min 0 UV-I 0 W/m 16,1 km/h (3 Bft)
06.05.2010 05:50 7,0 C 73 % 1006,7 hPa 0,0 mm 3,2 km/h (1 Bft) O-NO 67 0 min 0 UV-I 0 W/m 17,7 km/h (3 Bft)
06.05.2010 06:00 7,1 C 73 % 1006,6 hPa 0,0 mm 3,2 km/h (1 Bft) NO 45 0 min 0 UV-I 0 W/m 11,3 km/h (2 Bft)
06.05.2010 06:10 7,1 C 73 % 1006,5 hPa 0,0 mm 3,2 km/h (1 Bft) O-NO 67 0 min 0 UV-I 0 W/m 11,3 km/h (2 Bft)
06.05.2010 06:20 7,0 C 73 % 1006,5 hPa 0,0 mm 3,2 km/h (1 Bft) O-NO 67 0 min 0 UV-I 7 W/m 12,9 km/h (3 Bft)
06.05.2010 06:30 6,8 C 74 % 1006,4 hPa 0,0 mm 4,8 km/h (1 Bft) O-NO 67 0 min 0 UV-I 11 W/m 19,3 km/h (3 Bft)
06.05.2010 06:40 6,8 C 75 % 1006,4 hPa 0,0 mm 4,8 km/h (1 Bft) O-NO 67 0 min 0 UV-I 12 W/m 14,5 km/h (3 Bft)
06.05.2010 06:50 6,7 C 77 % 1006,5 hPa 0,0 mm 3,2 km/h (1 Bft) NO 45 0 min 0 UV-I 12 W/m 11,3 km/h (2 Bft)
06.05.2010 07:00 6,5 C 80 % 1006,4 hPa 0,3 mm 3,2 km/h (1 Bft) O-NO 67 0 min 0 UV-I 12 W/m 17,7 km/h (3 Bft)
06.05.2010 07:10 6,3 C 82 % 1006,5 hPa 0,0 mm 3,2 km/h (1 Bft) O 90 0 min 0 UV-I 12 W/m 20,9 km/h (4 Bft)
06.05.2010 07:20 6,1 C 83 % 1006,5 hPa 0,3 mm 3,2 km/h (1 Bft) N-NO 22 0 min 0 UV-I 14 W/m 9,7 km/h (2 Bft)
06.05.2010 07:30 5,9 C 84 % 1006,4 hPa 0,3 mm 3,2 km/h (1 Bft) N-NO 22 0 min 0 UV-I 14 W/m 14,5 km/h (3 Bft)
06.05.2010 07:40 5,8 C 85 % 1006,3 hPa 0,0 mm 3,2 km/h (1 Bft) N-NO 22 0 min 0 UV-I 12 W/m 14,5 km/h (3 Bft)
06.05.2010 07:50 5,7 C 86 % 1006,2 hPa 0,0 mm 3,2 km/h (1 Bft) NO 45 0 min 0 UV-I 18 W/m 14,5 km/h (3 Bft)
06.05.2010 08:00 5,7 C 87 % 1006,2 hPa 0,3 mm 0,9 km/h (0 Bft) NO 48 0 min 0 UV-I 21 W/m 3,2 km/h (1 Bft)
06.05.2010 08:10 5,7 C 87 % 1006,1 hPa 0,0 mm 1,6 km/h (1 Bft) NO 45 0 min 0 UV-I 26 W/m 14,5 km/h (3 Bft)
06.05.2010 08:20 5,7 C 87 % 1006,1 hPa 0,3 mm 3,2 km/h (1 Bft) N-NO 22 0 min 0 UV-I 28 W/m 9,7 km/h (2 Bft)
06.05.2010 08:30 5,7 C 88 % 1006,0 hPa 0,3 mm 3,2 km/h (1 Bft) NO 45 0 min 0 UV-I 42 W/m 8,0 km/h (2 Bft)
06.05.2010 08:40 5,7 C 88 % 1006,0 hPa 0,3 mm 3,2 km/h (1 Bft) N-NO 22 0 min 0 UV-I 46 W/m 11,3 km/h (2 Bft)
06.05.2010 08:50 5,7 C 88 % 1006,1 hPa 0,3 mm 3,2 km/h (1 Bft) O-NO 67 0 min 0 UV-I 58 W/m 9,7 km/h (2 Bft)
06.05.2010 09:00 5,7 C 89 % 1006,0 hPa 0,3 mm 1,6 km/h (1 Bft) N-NO 22 0 min 0 UV-I 65 W/m 8,0 km/h (2 Bft)
06.05.2010 09:10 5,8 C 89 % 1006,0 hPa 0,0 mm 1,6 km/h (1 Bft) N-NO 22 0 min 1 UV-I 70 W/m 9,7 km/h (2 Bft)
06.05.2010 09:20 5,8 C 89 % 1005,9 hPa 0,0 mm 3,2 km/h (1 Bft) N 360 0 min 1 UV-I 83 W/m 11,3 km/h (2 Bft)
06.05.2010 09:30 5,9 C 89 % 1005,8 hPa 0,3 mm 3,2 km/h (1 Bft) N-NO 22 0 min 1 UV-I 90 W/m 11,3 km/h (2 Bft)
06.05.2010 09:40 6,0 C 90 % 1005,7 hPa 0,0 mm 3,2 km/h (1 Bft) N-NO 22 0 min 1 UV-I 97 W/m 11,3 km/h (2 Bft)
06.05.2010 09:50 6,2 C 90 % 1005,6 hPa 0,0 mm 3,2 km/h (1 Bft) N-NO 22 0 min 1 UV-I 114 W/m 11,3 km/h (2 Bft)
06.05.2010 10:00 6,3 C 90 % 1005,5 hPa 0,0 mm 3,2 km/h (1 Bft) N-NO 22 0 min 1 UV-I 121 W/m 16,1 km/h (3 Bft)
06.05.2010 10:10 6,3 C 90 % 1005,4 hPa 0,0 mm 4,8 km/h (1 Bft) N 360 0 min 1 UV-I 102 W/m 19,3 km/h (3 Bft)
06.05.2010 10:20 6,4 C 90 % 1005,4 hPa 0,0 mm 3,2 km/h (1 Bft) N-NO 22 0 min 1 UV-I 81 W/m 11,3 km/h (2 Bft)
06.05.2010 10:30 6,4 C 90 % 1005,3 hPa 0,0 mm 3,2 km/h (1 Bft) NO 45 0 min 1 UV-I 97 W/m 14,5 km/h (3 Bft)
06.05.2010 10:40 6,5 C 90 % 1005,1 hPa 0,0 mm 4,8 km/h (1 Bft) N-NO 22 0 min 1 UV-I 98 W/m 12,9 km/h (3 Bft)
06.05.2010 10:50 6,5 C 90 % 1005,0 hPa 0,0 mm 3,2 km/h (1 Bft) N-NO 22 0 min 1 UV-I 81 W/m 11,3 km/h (2 Bft)
06.05.2010 11:00 6,5 C 90 % 1005,0 hPa 0,0 mm 4,8 km/h (1 Bft) N 360 0 min 1 UV-I 77 W/m 11,3 km/h (2 Bft)
06.05.2010 11:10 6,6 C 90 % 1005,0 hPa 0,0 mm 3,2 km/h (1 Bft) N-NO 22 0 min 1 UV-I 70 W/m 14,5 km/h (3 Bft)
06.05.2010 11:20 6,7 C 90 % 1004,8 hPa 0,0 mm 3,2 km/h (1 Bft) N-NO 22 0 min 1 UV-I 63 W/m 16,1 km/h (3 Bft)
06.05.2010 11:30 6,7 C 90 % 1004,8 hPa 0,0 mm 3,2 km/h (1 Bft) NO 45 0 min 1 UV-I 56 W/m 14,5 km/h (3 Bft)
06.05.2010 11:40 6,7 C 89 % 1004,7 hPa 0,0 mm 4,8 km/h (1 Bft) N-NO 22 0 min 0 UV-I 49 W/m 17,7 km/h (3 Bft)
06.05.2010 11:50 6,7 C 89 % 1004,7 hPa 0,0 mm 4,8 km/h (1 Bft) O-NO 67 0 min 1 UV-I 63 W/m 11,3 km/h (2 Bft)
06.05.2010 12:00 6,8 C 89 % 1004,7 hPa 0,0 mm 4,8 km/h (1 Bft) O-NO 67 0 min 0 UV-I 53 W/m 25,7 km/h (4 Bft)
06.05.2010 12:10 6,8 C 89 % 1004,6 hPa 0,0 mm 4,8 km/h (1 Bft) O-NO 67 0 min 0 UV-I 56 W/m 11,3 km/h (2 Bft)
06.05.2010 12:20 6,9 C 89 % 1004,5 hPa 0,0 mm 4,8 km/h (1 Bft) N-NO 22 0 min 1 UV-I 65 W/m 16,1 km/h (3 Bft)
06.05.2010 12:30 6,9 C 89 % 1004,4 hPa 0,0 mm 4,8 km/h (1 Bft) O-NO 67 0 min 1 UV-I 67 W/m 14,5 km/h (3 Bft)
06.05.2010 12:40 6,9 C 89 % 1004,3 hPa 0,0 mm 4,8 km/h (1 Bft) N-NO 22 0 min 1 UV-I 72 W/m 17,7 km/h (3 Bft)
06.05.2010 12:50 7,0 C 89 % 1004,4 hPa 0,0 mm 3,2 km/h (1 Bft) O-NO 67 0 min 0 UV-I 51 W/m 9,7 km/h (2 Bft)
06.05.2010 13:00 7,1 C 89 % 1004,4 hPa 0,0 mm 3,2 km/h (1 Bft) NO 45 0 min 0 UV-I 54 W/m 11,3 km/h (2 Bft)
06.05.2010 13:10 7,1 C 89 % 1004,4 hPa 0,0 mm 3,2 km/h (1 Bft) NO 45 0 min 1 UV-I 56 W/m 16,1 km/h (3 Bft)
06.05.2010 13:20 7,1 C 89 % 1004,2 hPa 0,0 mm 3,2 km/h (1 Bft) N-NO 22 0 min 1 UV-I 69 W/m 14,5 km/h (3 Bft)
06.05.2010 13:30 7,1 C 90 % 1004,0 hPa 0,0 mm 4,8 km/h (1 Bft) N 360 0 min 1 UV-I 90 W/m 11,3 km/h (2 Bft)
06.05.2010 13:40 7,1 C 90 % 1004,0 hPa 0,3 mm 4,8 km/h (1 Bft) N-NO 22 0 min 1 UV-I 97 W/m 16,1 km/h (3 Bft)
06.05.2010 13:50 7,2 C 90 % 1004,0 hPa 0,0 mm 3,2 km/h (1 Bft) N-NO 22 0 min 1 UV-I 118 W/m 12,9 km/h (3 Bft)
06.05.2010 14:00 7,2 C 90 % 1003,9 hPa 0,3 mm 4,8 km/h (1 Bft) N-NO 22 0 min 1 UV-I 127 W/m 11,3 km/h (2 Bft)
06.05.2010 14:10 7,2 C 90 % 1003,8 hPa 0,3 mm 3,2 km/h (1 Bft) N-NO 22 0 min 1 UV-I 77 W/m 11,3 km/h (2 Bft)
06.05.2010 14:20 7,2 C 90 % 1003,8 hPa 0,3 mm 3,2 km/h (1 Bft) N 360 0 min 1 UV-I 74 W/m 11,3 km/h (2 Bft)
06.05.2010 14:30 7,2 C 90 % 1003,8 hPa 0,0 mm 1,6 km/h (1 Bft) N 360 0 min 0 UV-I 54 W/m 9,7 km/h (2 Bft)
06.05.2010 14:40 7,2 C 91 % 1003,8 hPa 0,0 mm 4,8 km/h (1 Bft) N-NO 22 0 min 0 UV-I 54 W/m 19,3 km/h (3 Bft)
06.05.2010 14:50 7,2 C 90 % 1003,7 hPa 0,3 mm 3,2 km/h (1 Bft) NO 45 0 min 1 UV-I 67 W/m 11,3 km/h (2 Bft)
06.05.2010 15:00 7,2 C 90 % 1003,8 hPa 0,8 mm 3,2 km/h (1 Bft) N-NO 22 0 min 0 UV-I 54 W/m 11,3 km/h (2 Bft)
06.05.2010 15:10 7,1 C 91 % 1003,7 hPa 0,8 mm 3,2 km/h (1 Bft) N-NO 22 0 min 0 UV-I 37 W/m 16,1 km/h (3 Bft)
06.05.2010 15:20 6,9 C 90 % 1003,7 hPa 0,0 mm 6,4 km/h (2 Bft) N-NO 22 0 min 0 UV-I 32 W/m 19,3 km/h (3 Bft)
06.05.2010 15:30 6,8 C 90 % 1003,6 hPa 0,5 mm 4,8 km/h (1 Bft) N-NO 22 0 min 0 UV-I 30 W/m 14,5 km/h (3 Bft)
06.05.2010 15:40 6,8 C 91 % 1003,6 hPa 0,0 mm 3,2 km/h (1 Bft) N 360 0 min 0 UV-I 26 W/m 14,5 km/h (3 Bft)
06.05.2010 15:50 6,8 C 91 % 1003,7 hPa 0,3 mm 3,2 km/h (1 Bft) N-NO 22 0 min 1 UV-I 56 W/m 8,0 km/h (2 Bft)
06.05.2010 16:00 7,0 C 91 % 1003,7 hPa 1,0 mm 0,2 km/h (0 Bft) N-NO 24 0 min 0 UV-I 42 W/m 3,2 km/h (1 Bft)
06.05.2010 16:10 7,1 C 91 % 1003,7 hPa 0,5 mm 1,6 km/h (1 Bft) N-NO 22 0 min 1 UV-I 63 W/m 9,7 km/h (2 Bft)
06.05.2010 16:20 7,0 C 91 % 1003,6 hPa 0,3 mm 3,2 km/h (1 Bft) N 360 0 min 1 UV-I 56 W/m 9,7 km/h (2 Bft)
06.05.2010 16:30 6,9 C 91 % 1003,6 hPa 0,0 mm 1,6 km/h (1 Bft) N-NW 337 0 min 0 UV-I 40 W/m 11,3 km/h (2 Bft)
06.05.2010 16:40 6,9 C 92 % 1003,6 hPa 0,3 mm 3,2 km/h (1 Bft) N-NO 22 0 min 0 UV-I 46 W/m 12,9 km/h (3 Bft)
06.05.2010 16:50 6,9 C 92 % 1003,6 hPa 0,3 mm 3,2 km/h (1 Bft) N-NO 22 0 min 0 UV-I 42 W/m 11,3 km/h (2 Bft)
06.05.2010 17:00 6,9 C 92 % 1003,6 hPa 0,0 mm 3,2 km/h (1 Bft) N 360 0 min 0 UV-I 44 W/m 11,3 km/h (2 Bft)
06.05.2010 17:10 6,9 C 92 % 1003,6 hPa 0,0 mm 3,2 km/h (1 Bft) N-NO 22 0 min 0 UV-I 44 W/m 9,7 km/h (2 Bft)
06.05.2010 17:20 6,9 C 92 % 1003,6 hPa 0,0 mm 3,2 km/h (1 Bft) NO 45 0 min 0 UV-I 51 W/m 9,7 km/h (2 Bft)
06.05.2010 17:30 6,8 C 92 % 1003,5 hPa 0,5 mm 3,2 km/h (1 Bft) N-NO 22 0 min 0 UV-I 62 W/m 12,9 km/h (3 Bft)
06.05.2010 17:40 6,8 C 92 % 1003,6 hPa 0,0 mm 4,8 km/h (1 Bft) NO 45 0 min 0 UV-I 42 W/m 16,1 km/h (3 Bft)
06.05.2010 17:50 6,6 C 92 % 1003,6 hPa 0,3 mm 4,8 km/h (1 Bft) O-NO 67 0 min 0 UV-I 49 W/m 17,7 km/h (3 Bft)
06.05.2010 18:00 6,4 C 91 % 1003,6 hPa 0,0 mm 4,8 km/h (1 Bft) N-NO 22 0 min 0 UV-I 54 W/m 14,5 km/h (3 Bft)
06.05.2010 18:10 6,4 C 91 % 1003,6 hPa 0,3 mm 4,8 km/h (1 Bft) N-NO 22 0 min 0 UV-I 58 W/m 14,5 km/h (3 Bft)
06.05.2010 18:20 6,4 C 91 % 1003,5 hPa 0,5 mm 3,2 km/h (1 Bft) N-NO 22 0 min 0 UV-I 51 W/m 17,7 km/h (3 Bft)
06.05.2010 18:30 6,5 C 91 % 1003,5 hPa 0,3 mm 3,2 km/h (1 Bft) N-NO 22 0 min 0 UV-I 33 W/m 11,3 km/h (2 Bft)
06.05.2010 18:40 6,6 C 91 % 1003,5 hPa 0,0 mm 3,2 km/h (1 Bft) N 360 0 min 0 UV-I 30 W/m 14,5 km/h (3 Bft)
06.05.2010 18:50 6,6 C 91 % 1003,5 hPa 0,3 mm 3,2 km/h (1 Bft) N-NO 22 0 min 0 UV-I 30 W/m 14,5 km/h (3 Bft)
06.05.2010 19:00 6,6 C 91 % 1003,4 hPa 0,0 mm 4,8 km/h (1 Bft) N-NO 22 0 min 0 UV-I 28 W/m 11,3 km/h (2 Bft)
06.05.2010 19:10 6,5 C 91 % 1003,5 hPa 0,3 mm 6,4 km/h (2 Bft) N 360 0 min 0 UV-I 21 W/m 19,3 km/h (3 Bft)
06.05.2010 19:20 6,5 C 92 % 1003,5 hPa 0,0 mm 4,8 km/h (1 Bft) N 360 0 min 0 UV-I 19 W/m 17,7 km/h (3 Bft)
06.05.2010 19:30 6,5 C 91 % 1003,5 hPa 0,0 mm 4,8 km/h (1 Bft) N-NO 22 0 min 0 UV-I 18 W/m 19,3 km/h (3 Bft)
06.05.2010 19:40 6,4 C 91 % 1003,6 hPa 0,0 mm 4,8 km/h (1 Bft) O-NO 67 0 min 0 UV-I 16 W/m 14,5 km/h (3 Bft)
06.05.2010 19:50 6,4 C 91 % 1003,6 hPa 0,0 mm 3,2 km/h (1 Bft) O-NO 67 0 min 0 UV-I 14 W/m 9,7 km/h (2 Bft)
06.05.2010 20:00 6,3 C 91 % 1003,6 hPa 0,0 mm 1,6 km/h (1 Bft) N 360 0 min 0 UV-I 12 W/m 8,0 km/h (2 Bft)
06.05.2010 20:10 6,3 C 91 % 1003,7 hPa 0,3 mm 3,2 km/h (1 Bft) N 360 0 min 0 UV-I 7 W/m 11,3 km/h (2 Bft)
06.05.2010 20:20 6,3 C 91 % 1003,6 hPa 0,0 mm 4,8 km/h (1 Bft) N-NO 22 0 min 0 UV-I 5 W/m 16,1 km/h (3 Bft)
06.05.2010 20:30 6,3 C 91 % 1003,6 hPa 0,3 mm 3,2 km/h (1 Bft) N-NO 22 0 min 0 UV-I 0 W/m 9,7 km/h (2 Bft)
06.05.2010 20:40 6,2 C 92 % 1003,6 hPa 0,0 mm 3,2 km/h (1 Bft) N-NO 22 0 min 0 UV-I 0 W/m 11,3 km/h (2 Bft)
06.05.2010 20:50 6,2 C 92 % 1003,7 hPa 0,0 mm 3,2 km/h (1 Bft) N-NO 22 0 min 0 UV-I 0 W/m 9,7 km/h (2 Bft)
06.05.2010 21:00 6,2 C 92 % 1003,8 hPa 0,0 mm 3,2 km/h (1 Bft) O-NO 67 0 min 0 UV-I 0 W/m 9,7 km/h (2 Bft)
06.05.2010 21:10 6,2 C 92 % 1003,8 hPa 0,0 mm 1,6 km/h (1 Bft) N-NO 22 0 min 0 UV-I 0 W/m 8,0 km/h (2 Bft)
06.05.2010 21:20 6,2 C 92 % 1003,9 hPa 0,0 mm 4,8 km/h (1 Bft) N-NO 22 0 min 0 UV-I 0 W/m 19,3 km/h (3 Bft)
06.05.2010 21:30 6,1 C 92 % 1004,0 hPa 0,0 mm 4,8 km/h (1 Bft) N 360 0 min 0 UV-I 0 W/m 16,1 km/h (3 Bft)
06.05.2010 21:40 6,0 C 92 % 1004,0 hPa 0,3 mm 4,8 km/h (1 Bft) NO 45 0 min 0 UV-I 0 W/m 16,1 km/h (3 Bft)
06.05.2010 21:50 5,8 C 92 % 1004,1 hPa 0,0 mm 3,2 km/h (1 Bft) N-NO 22 0 min 0 UV-I 0 W/m 11,3 km/h (2 Bft)
06.05.2010 22:00 5,8 C 92 % 1004,2 hPa 0,0 mm 3,2 km/h (1 Bft) O-NO 67 0 min 0 UV-I 0 W/m 11,3 km/h (2 Bft)
06.05.2010 22:10 5,7 C 92 % 1004,2 hPa 0,3 mm 3,2 km/h (1 Bft) NO 45 0 min 0 UV-I 0 W/m 11,3 km/h (2 Bft)
06.05.2010 22:20 5,7 C 92 % 1004,3 hPa 0,0 mm 3,2 km/h (1 Bft) N 360 0 min 0 UV-I 0 W/m 12,9 km/h (3 Bft)
06.05.2010 22:30 5,6 C 92 % 1004,4 hPa 0,3 mm 4,8 km/h (1 Bft) NO 45 0 min 0 UV-I 0 W/m 20,9 km/h (4 Bft)
06.05.2010 22:40 4,9 C 91 % 1004,4 hPa 0,8 mm 3,6 km/h (1 Bft) NO 51 0 min 0 UV-I 0 W/m 9,7 km/h (2 Bft)
06.05.2010 22:50 4,6 C 91 % 1004,4 hPa 0,8 mm 5,0 km/h (1 Bft) NO 34 0 min 0 UV-I 0 W/m 16,1 km/h (3 Bft)
06.05.2010 23:00 4,6 C 92 % 1004,3 hPa 0,0 mm 2,2 km/h (1 Bft) N-NO 27 0 min 0 UV-I 0 W/m 8,0 km/h (2 Bft)
06.05.2010 23:10 4,7 C 92 % 1004,3 hPa 0,3 mm 2,0 km/h (1 Bft) NO 46 0 min 0 UV-I 0 W/m 8,0 km/h (2 Bft)
06.05.2010 23:20 4,7 C 92 % 1004,4 hPa 0,3 mm 2,2 km/h (1 Bft) NO 36 0 min 0 UV-I 0 W/m 8,0 km/h (2 Bft)
06.05.2010 23:30 4,7 C 92 % 1004,4 hPa 0,3 mm 1,6 km/h (1 Bft) O-NO 67 0 min 0 UV-I 0 W/m 4,8 km/h (1 Bft)
06.05.2010 23:40 4,8 C 92 % 1004,3 hPa 0,3 mm 0,0 km/h (0 Bft) O-NO 67 0 min 0 UV-I 0 W/m 3,2 km/h (1 Bft)
06.05.2010 23:50 4,7 C 92 % 1004,4 hPa 1,0 mm 3,2 km/h (1 Bft) NO 45 0 min 0 UV-I 0 W/m 16,1 km/h (3 Bft)
_ Min-Zeit 23:50 00:40 19:00 - 23:40 - - - - - 08:00
Minimum _ 4,5 C 66 % 1003,4 hPa - 0,0 km/h (0 Bft) - - - - - 3,2 km/h (1 Bft)
_ Max-Zeit 14:10 16:40 00:00 16:00 15:20 - - 00:00 14:00 14:00 12:00
Maximum _ 7,3 C 92 % 1010,9 hPa 1,0 mm 6,4 km/h
N-NO (2 Bft)
- - 0 min 1 UV-I 127 W/m 25,7 km/h
N-NW (4 Bft)
Durchschnitt _ 6,5 C 85 % 1005,6 hPa #15,5 mm 3,3 km/h (1 Bft) N-NO - #0 min. 1 UV-I 51 W/m 12,3 km/h (3 Bft)